Skip Navigation Links weather.gov 
NOAA logo-Select to go to the NOAA homepage NDBC Title GraphicClick to go to NDBC home page   Select to go to the NWS homepage
Home About Us Contact Us
 
 
    
    Station List

 Data Access
    Mobile Access
    Classic Maps
         Recent
         DART®
    Obs Search
    Ship Obs Report
    BuoyCAMs
    TAO
    DODS
    OceanSITES
    HF Radar
    OSMC
    Dial-A-Buoy
    RSS Feeds Image indicating link to RSS feed access page
    Web Widget
    Web Data Guide
    Maintenance Schedule
    Station Status Report

 Program Info
    TAO
    DART®
    IOOS®

 Publications
    NDBC PEA
    NDBC FONSI
    NDBC DQC Handbook

 Visitor Information
 
USA.gov is the U.S. government's official web portal to all federal, state and local government web resources and services.

Station STXA2 - Sitka AML, AK Image indicating link to RSS feed of recent meteorological observations for station STXA2

Owned and maintained by Marine Exchange of Alaska
C-MAN Station
57.116 N 135.391 W (57°6'59" N 135°23'27" W)

Site elevation: 10.7 m above mean sea level
Air temp height: 9.4 m above site elevation
Anemometer height: 9.4 m above site elevation
Barometer elevation: 20.1 m above mean sea level

Search And Rescue (SAR) Data

Meteorological Observations from Nearby Stations and Ships Image indicating link to RSS feed of recent meteorological observations near station STXA2

Large icon indicates selected station.
yellow diamond Stations with recent data
red diamond Stations with no data in last 8 hours
     (24 hours for tsunami stations)


Conditions at STXA2 as of
(1:24 pm AKST)
2224 GMT on 12/02/2020:
     

Click on the graph icon in the table below to see a time series plot of the last five days of that observation.

5-day plot - Wind Direction Wind Direction (WDIR): ESE ( 120 deg true )
5-day plot - Wind Speed Wind Speed (WSPD): 10 kts
5-day plot - Wind Gust Wind Gust (GST): 28 kts
5-day plot - Atmospheric Pressure Atmospheric Pressure (PRES): 29.48 in
5-day plot - Air Temperature Air Temperature (ATMP): 50.2 °F
5-day plot - Dew Point Dew Point (DEWP): 39.4 °F
5-day plot - Wind Chill Wind Chill (CHILL): 45.9 °F
5-day plot - Wind Speed at 10 Meters Wind Speed at 10 meters (WSPD10M): 10 kts
5-day plot - Wind Speed at 10 Meters Wind Speed at 20 meters (WSPD20M): 12 kts
5-day plot - Wind Speed, Wind Gust and Atmospheric Pressure Combined plot of Wind Speed, Gust, and Air Pressure
Previous observations
5-day plot - Wind Direction 5-day plot - Wind Speed 5-day plot - Wind Gust 5-day plot - Wave Height 5-day plot - Dominant Wave Period 5-day plot - Average Period 5-day plot - Mean Wave Direction 5-day plot - Atmospheric Pressure 5-day plot - Pressure Tendency 5-day plot - Air Temperature 5-day plot - Water Temperature 5-day plot - Dew Point 5-day plot - Salinity 5-day plot - Visibility 5-day plot - Tide (above MLLW)
MM DD TIME
(AKST)
WDIR WSPD
kts
GST
kts
WVHT
ft
DPD
sec
APD
sec
MWD PRES
in
PTDY
in
ATMP
°F
WTMP
°F
DEWP
°F
SAL
psu
VIS
nmi
TIDE
ft
1202 1:14 pmESE 9 27----29.47- 51.1- 38.8---
1202 1:04 pmESE 10 25----29.46- 51.3- 38.5---
120212:54 pmESE 10 26----29.47- 51.6- 38.3---
120212:44 pmESE 11 34----29.48- 52.5- 37.6---
120212:34 pmESE 13 36----29.47- 52.7- 37.0---
120212:24 pmESE 13 38----29.47- 52.7- 36.0---
120212:14 pmESE 10 30----29.49- 52.5- 36.1---
120212:04 pmESE 11 31----29.49- 53.8- 35.6---
120211:54 amESE 12 31----29.49- 55.0- 34.2---
120211:44 am SE 12 32----29.49- 54.5- 35.6---
120211:34 amESE 12 33----29.49- 55.8- 34.9---
120211:24 am SE 12 31----29.49- 56.3- 34.9---
120211:14 amESE 13 28----29.49- 55.8- 36.0---
120211:04 amESE 12 37----29.50- 54.3- 38.7---
120210:54 amESE 10 33----29.51- 53.2- 39.7---
120210:44 am SE 9 26----29.53- 52.9- 40.6---
120210:34 amESE 7 21----29.54- 52.9- 40.8---
120210:24 am SE 8 23----29.56- 53.4- 40.8---
120210:14 am SE 7 20----29.55- 54.3- 40.6---
120210:04 am SE 6 20----29.54- 54.9- 41.9---
1202 9:54 amESE 7 16----29.53- 55.8- 42.4---
1202 9:44 amESE 6 15----29.53- 55.6- 43.2---
1202 9:34 amESE 6 16----29.54- 55.2- 43.5---
1202 9:24 am SE 7 19----29.54- 55.2- 44.2---
1202 9:14 amESE 7 14----29.54- 54.7- 45.1---
1202 9:04 am SE 7 20----29.54- 54.9- 45.3---
1202 8:54 amESE 6 18----29.54- 54.3- 45.0---
1202 8:44 amESE 8 20----29.56- 54.1- 44.8---
1202 8:34 amESE 7 22----29.57- 54.0- 45.3---
1202 8:24 amESE 7 18----29.57- 54.0- 46.2---
1202 8:14 am SE 6 20----29.57- 54.0- 46.8---
1202 8:04 amESE 7 17----29.57- 54.5- 46.8---
1202 7:54 amESE 6 16----29.57- 55.4- 46.8---
1202 7:44 am SE 6 14----29.58- 55.9- 46.2---
1202 7:34 am SE 8 20----29.59- 56.5- 46.2---
1202 7:24 am SE 9 21----29.59- 56.7- 46.2---
1202 7:14 amESE 8 21----29.59- 55.9- 46.8---
1202 7:04 am SE 7 25----29.60- 55.0- 47.1---
1202 6:54 am SE 7 18----29.61- 54.3- 47.1---
1202 6:44 am SE 6 16----29.61- 54.1- 47.3---
1202 6:34 amESE 8 20----29.62- 54.1- 47.3---
1202 6:24 am SE 8 21----29.61- 54.0- 47.7---
1202 6:14 amESE 8 23----29.62- 53.6- 47.8---
1202 6:04 amESE 8 25----29.62- 53.2- 47.8---
1202 5:54 amESE 8 21----29.62- 53.1- 47.7---
1202 5:44 am SE 9 25----29.62- 53.6- 47.8---
1202 5:34 am SE 8 22----29.62- 54.0- 47.8---
1202 5:24 am SE 6 16----29.61- 54.3- 48.0---
1202 5:14 am SE 7 18----29.61- 54.3- 48.0---
1202 5:04 am SE 8 21----29.61- 54.1- 48.7---
1202 4:54 am SE 9 25----29.61- 54.9- 48.7---
1202 4:44 am SE 9 23----29.61- 55.8- 48.6---
1202 4:34 am SE 8 22----29.62- 56.5- 48.4---
1202 4:24 am SE 11 26----29.62- 56.8- 48.4---
1202 4:14 am SE 11 24----29.62- 57.2- 48.6---
1202 4:04 am SE 8 30----29.62- 57.0- 48.7---
1202 3:54 am SE 10 23----29.62- 56.8- 48.9---
1202 3:44 am SE 10 27----29.62- 57.0- 49.1---
1202 3:34 amSSE 10 23----29.61- 57.0- 49.3---
1202 3:24 am SE 9 25----29.61- 56.5- 49.6---
1202 3:14 amSSE 10 24----29.61- 56.5- 49.6---
1202 3:04 amSSE 10 24----29.61- 56.1- 49.8---
1202 2:54 am SE 8 23----29.62- 56.1- 50.0---
1202 2:44 amSSE 11 31----29.62- 55.9- 50.2---
1202 2:34 am SE 12 35----29.61- 55.9- 50.7---
1202 2:24 am SE 12 29----29.61- 55.8- 50.7---
1202 2:14 am SE 10 33----29.60- 55.8- 50.7---
1202 2:04 am SE 8 25----29.60- 55.4- 50.5---
1202 1:54 am S 11 29----29.61- 54.5- 50.0---
1202 1:44 amSSE 15 37----29.62- 54.0- 49.6---
1202 1:34 amSSE 17 43----29.63- 54.0- 49.5---
1202 1:24 amSSE 15 40----29.63- 53.8- 49.3---
1202 1:14 amSSE 13 37----29.62- 53.8- 49.5---
1202 1:04 amSSE 16 43----29.62- 53.8- 49.5---
120212:54 amSSE 18 47----29.62- 54.0- 49.5---
120212:44 amSSE 16 37----29.62- 54.1- 49.3---
120212:34 amSSE 15 42----29.62- 54.3- 49.6---
120212:24 amSSE 15 42----29.61- 54.1- 49.8---
120212:14 amSSE 21 50----29.62- 54.3- 49.8---
120212:04 amSSE 17 46----29.62- 54.5- 49.8---
120111:54 pmSSE 18 44----29.62- 54.0- 49.8---
120111:44 pmSSE 16 45----29.62- 53.2- 49.8---
120111:34 pmSSE 16 50----29.62- 53.1- 49.6---
120111:24 pmSSE 17 46----29.62- 53.8- 49.8---
120111:14 pmSSE 19 57----29.63- 53.6- 49.6---
120111:04 pmSSE 16 45----29.63- 53.2- 49.5---
120110:54 pmSSE 18 39----29.63- 53.4- 49.3---
120110:44 pmSSE 17 40----29.63- 53.1- 49.5---
120110:34 pmSSE 16 38----29.63- 53.1- 49.6---
120110:24 pmSSE 17 47----29.63- 52.7- 49.8---
120110:14 pm SE 17 38----29.63- 52.9- 50.0---
120110:04 pmSSE 17 40----29.62- 52.9- 50.2---
1201 9:54 pmSSE 16 54----29.62- 52.9- 50.0---
1201 9:44 pmSSE 16 45----29.62- 53.1- 49.8---
1201 9:34 pmSSE 19 42----29.62- 53.1- 50.0---
1201 9:24 pmSSE 16 45----29.62- 53.2- 49.8---
1201 9:14 pmSSE 17 45----29.62- 53.2- 49.8---
1201 9:04 pm SE 16 48----29.62- 53.1- 49.8---
1201 8:54 pm SE 15 44----29.62- 52.9- 50.2---
1201 8:44 pmSSE 14 42----29.62- 53.1- 50.4---
1201 8:34 pm SE 14 43----29.62- 52.9- 50.4---
1201 8:24 pm SE 15 38----29.61- 53.2- 50.5---
1201 8:14 pm SE 15 46----29.60- 53.4- 50.5---
1201 8:04 pm SE 12 39----29.60- 53.8- 50.7---
1201 7:54 pm SE 11 45----29.60- 53.2- 50.7---
1201 7:44 pmSSE 13 34----29.60- 53.1- 50.5---
1201 7:34 pm SE 14 36----29.59- 53.1- 50.5---
1201 7:24 pmSSE 13 35----29.59- 53.2- 50.7---
1201 7:14 pm SE 16 42----29.59- 53.6- 50.7---
1201 7:04 pm SE 13 46----29.59- 53.2- 50.7---
1201 6:54 pm SE 12 42----29.59- 53.2- 50.9---
1201 6:44 pm SE 15 37----29.58- 53.4- 51.1---
1201 6:34 pm SE 14 44----29.58- 53.4- 50.9---
1201 6:24 pm SE 14 42----29.58- 53.4- 50.9---
1201 6:14 pm SE 13 38----29.58- 53.4- 50.9---
1201 6:04 pm SE 12 41----29.58- 53.8- 51.1---
1201 5:54 pm SE 14 40----29.57- 54.0- 50.9---
1201 5:44 pm SE 14 49----29.57- 54.3- 50.9---
1201 5:34 pmSSE 16 40----29.55- 54.3- 50.9---
1201 5:24 pmSSE 17 48----29.55- 54.3- 50.9---
1201 5:14 pmSSE 15 43----29.56- 54.0- 50.7---
1201 5:04 pm SE 18 43----29.57- 54.0- 50.7---
1201 4:54 pmSSE 18 46----29.56- 54.3- 50.9---
1201 4:44 pmSSE 19 56----29.56- 54.7- 50.9---
1201 4:34 pmSSE 13 42----29.55- 54.7- 51.3---
1201 4:24 pm SE 14 44----29.56- 54.5- 51.3---
1201 4:14 pm SE 11 34----29.56- 55.2- 51.1---
1201 4:04 pm SE 14 39----29.56- 56.3- 51.1---
1201 3:54 pmSSE 14 34----29.57- 56.5- 51.1---
1201 3:44 pmSSE 18 49----29.57- 56.3- 50.9---
1201 3:34 pm SE 18 39----29.57- 55.6- 50.9---
1201 3:24 pm SE 14 41----29.57- 55.9- 51.4---
1201 3:14 pm SE 15 42----29.56- 55.8- 51.6---
1201 2:54 pmSSE 16 44----29.57- 55.0- 51.4---
1201 2:44 pmSSE 15 41----29.56- 55.9- 51.4---
1201 2:34 pmSSE 16 39----29.56- 55.8- 51.4---
1201 2:24 pmSSE 17 47----29.55- 56.3- 51.1---
1201 2:14 pmSSE 18 42----29.55- 55.8- 51.1---
1201 2:04 pmSSE 22 53----29.55- 55.9- 50.9---
1201 1:54 pmSSE 19 52----29.55- 55.4- 50.7---
1201 1:44 pmSSE 20 45----29.55- 55.0- 50.5---
1201 1:34 pmSSE 19 57----29.56- 54.3- 50.5---
1201 1:24 pmSSE 17 45----29.57- 54.3- 50.5---
1201 1:14 pm SE 17 45----29.57- 53.8- 50.7---
1201 1:04 pm SE 18 45----29.57- 53.8- 50.7---
120112:54 pm SE 14 49----29.57- 53.1- 50.7---

Description of Measurements

Links which are specific to this station are listed below:

Real Time Data in tabular form for the last forty-five days.

Historical Data & Climatic Summaries for quality controlled data for the current month, previous months, and previous years.